Regional Weather Roundup
Issued by NWS

Home | Current Version | Previous Version | Text Only | Print | Product List | Glossary On
Versions: 1 2 3 4 5 6 7 8 9 10 11 12 13 14 15 16 17 18 19 20 21 22 23 24 25 26 27 28 29 30 31 32 33 34 35 36 37 38 39 40 41 42 43 44 45 46 47 48 49 50
000
ASUS45 KREV 271510
RWRNV
NEVADA REGIONAL WEATHER ROUNDUP
NATIONAL WEATHER SERVICE RENO NV
700 AM PST FRI FEB 27 2015

NOTE: "FAIR" INDICATES FEW OR NO CLOUDS BELOW 12,000 FEET WITH NO
SIGNIFICANT WEATHER AND/OR OBSTRUCTIONS TO VISIBILITY.

NVZ001-003-004-271600-
WESTERN NEVADA

CITY           SKY/WX    TMP DP  RH WIND       PRES   REMARKS
RENO           MOCLDY    36  24  62 CALM      29.79F
CARSON CITY    FAIR      34  23  64 S3        29.78F
MINDEN         CLOUDY    41  27  56 SE3       29.80
SLIDE MTN        N/A     23  21  93 NW10        N/A
PYRAMID LAKE     N/A     43 N/A N/A SW5         N/A
FALLON         MOCLDY    30  21  69 CALM      29.78S
LOVELOCK       CLOUDY    34  30  85 N3        29.78F
HAWTHORNE      PTCLDY    36  21  55 E3        29.79F
$$

NVZ002-CAZ072-073-271600-
NORTHERN AND CENTRAL SIERRA

CITY           SKY/WX    TMP DP  RH WIND       PRES   REMARKS
S. LAKE TAHOE  MOCLDY    33  27  78 CALM      29.79F
TRUCKEE        PTCLDY    27  21  80 CALM      29.80F
SQUAW VLY 8000   N/A     28  28 100 W5          N/A
SUSANVILLE     MOCLDY    34  30  86 NW3       29.79
BLUE CANYON    PTCLDY    35  31  85 SE5       29.82F
MAMMOTH LAKES  FAIR      27  19  74 CALM      29.79S
BRIDGEPORT     LGT SNOW  34  26  72 W5G20     29.76F
$$

NVZ030-031-036-271600-
NORTHERN NEVADA

CITY           SKY/WX    TMP DP  RH WIND       PRES   REMARKS
ELKO           CLOUDY    26  24  92 CALM      29.78S
WINNEMUCCA     FLURRIES  33  31  92 SE3       29.78F
WENDOVER       CLOUDY    34  27  75 NE3       29.82S
$$

NVZ035-037-271600-
CENTRAL NEVADA

CITY           SKY/WX    TMP DP  RH WIND       PRES   REMARKS
ELY            PTCLDY    17  13  84 S12       29.80F
EUREKA           N/A     22  15  75 CALM      29.79S
$$

NVZ013-014-271600-
SOUTH CENTRAL NEVADA

CITY           SKY/WX    TMP DP  RH WIND       PRES   REMARKS
TONOPAH        MOCLDY    34  18  52 NE8       29.81F
$$

NVZ017-020-022-271600-
SOUTHERN NEVADA

CITY           SKY/WX    TMP DP  RH WIND       PRES   REMARKS
LAS VEGAS      PTCLDY    48  26  42 S9        29.76S
N. LAS VEGAS   MOCLDY    47  27  45 W3        29.79R
NELLIS AFB     PTCLDY    50  24  37 CALM      29.79S
HENDERSON      CLEAR     43  27  53 S5        29.81S
MERCURY        MOCLDY    47  20  34 MISG      29.78S
$$



USA.gov is the U.S. government's official web portal to all federal, state and local government web resources and services.